Tracking 25995 objects as of 19-Aug-2022
HD Live streaming from Space Station
objects crossing your sky now

INSAT 2B

Track INSAT 2B now!
INSAT 2B is classified as:


NORAD ID: 22724
Int'l Code: 1993-048B
Perigee: 35,807.9 km
Apogee: 35,940.9 km
Inclination: 14.0 °
Period: 1,440.2 minutes
Semi major axis: 42245 km
RCS: 19.9526 m2 (large)
Launch date: July 22, 1993
Source: India (IND)
Launch site: FRENCH GUIANA (FRGUI)

Second of Spain's communications satellites; 15 multi-frequency transponders
aabbcc
Your satellite tracking list
Your tracking list is empty




NASA's NSSDC Master Catalog

Two Line Element Set (TLE):
1 22724U 93048B   22230.70778910 -.00000249  00000-0  00000-0 0  9995
2 22724  14.0042  12.9541 0015745 166.5697  17.5040  0.99984824106595
Source of the keplerian elements: AFSPC